FW8707 Weather Reports


Display with metric or nautical units.
time (UTC)temp
F
wind
direction
speed
MPH
gust
MPH
rain 1hr
in
rain 24hr
in
rain mn
in
humidity
%
barometer
mb
20260904062511 70 281 0.0 2.0 0.00 0.00 0.00 45 1014.6
20260904062014 71 281 1.0 2.0 0.00 0.00 0.00 45 1014.5
20260904061529 71 282 0.0 3.0 0.00 0.00 0.00 45 1014.6
20260904061014 71 270 0.0 3.0 0.00 0.00 0.00 45 1014.6
20260904060516 71 270 0.0 3.0 0.00 0.00 0.00 44 1014.7
20260904060034 71 270 0.0 3.0 0.00 0.00 0.00 43 1014.6
20260904055505 71 270 1.0 3.0 0.00 0.00 0.00 43 1014.6
20260904055004 71 280 1.0 2.0 0.00 0.00 0.00 43 1014.7
20260904054524 72 275 0.0 3.0 0.00 0.00 0.00 43 1014.8
20260904054007 72 275 0.0 3.0 0.00 0.00 0.00 43 1014.8
20260904053508 72 279 0.0 3.0 0.00 0.00 0.00 43 1014.9
20260904053034 72 275 0.0 4.0 0.00 0.00 0.00 43 1014.8
20260904052510 72 279 1.0 4.0 0.00 0.00 0.00 43 1014.8
20260904052010 72 279 0.0 3.0 0.00 0.00 0.00 42 1014.7
20260904051535 72 279 0.0 3.0 0.00 0.00 0.00 42 1014.8
20260904051013 72 275 1.0 3.0 0.00 0.00 0.00 41 1014.8
20260904050513 72 275 1.0 3.0 0.00 0.00 0.00 41 1014.8
20260904050035 72 279 0.0 3.0 0.00 0.00 0.00 40 1014.9
20260904045514 72 275 1.0 3.0 0.00 0.00 0.00 41 1014.9
20260904045014 72 270 0.0 2.0 0.00 0.00 0.00 40 1014.9
20260904044530 72 270 0.0 3.0 0.00 0.00 0.00 40 1015.0
20260904044006 72 270 0.0 3.0 0.00 0.00 0.00 39 1014.9
20260904043506 73 275 1.0 4.0 0.00 0.00 0.00 39 1015.0
20260904043011 73 270 0.0 5.0 0.00 0.00 0.00 38 1015.1
20260904042506 73 270 1.0 5.0 0.00 0.00 0.00 38 1015.2
20260904042009 73 270 1.0 4.0 0.00 0.00 0.00 38 1015.2
20260904041515 74 270 0.0 4.0 0.00 0.00 0.00 38 1015.3
20260904041010 74 279 2.0 5.0 0.00 0.00 0.00 37 1015.3
20260904040511 74 285 0.0 5.0 0.00 0.00 0.00 37 1015.3
20260904040023 75 279 0.0 4.0 0.00 0.00 0.00 37 1015.3
20260904035511 75 287 0.0 3.0 0.00 0.00 0.00 36 1015.4
20260904035016 76 285 0.0 4.0 0.00 0.00 0.00 36 1015.4
20260904034530 76 275 1.0 4.0 0.00 0.00 0.00 35 1015.5
20260904034018 76 275 1.0 4.0 0.00 0.00 0.00 35 1015.5
20260904033516 76 275 0.0 4.0 0.00 0.00 0.00 35 1015.5
20260904033030 76 279 0.0 3.0 0.00 0.00 0.00 35 1015.4
20260904032507 76 287 1.0 4.0 0.00 0.00 0.00 35 1015.3
20260904032008 77 279 0.0 5.0 0.00 0.00 0.00 35 1015.3
20260904031535 77 279 1.0 5.0 0.00 0.00 0.00 35 1015.3
20260904031010 77 279 2.0 5.0 0.00 0.00 0.00 35 1015.2
20260904030510 77 270 1.0 4.0 0.00 0.00 0.00 35 1015.1
20260904030019 77 275 1.0 4.0 0.00 0.00 0.00 36 1015.1
20260904025511 78 279 1.0 3.0 0.00 0.00 0.00 36 1015.0
20260904025012 78 287 0.0 2.0 0.00 0.00 0.00 36 1015.1
20260904024526 78 283 0.0 1.0 0.00 0.00 0.00 36 1015.0
20260904024015 78 283 0.0 1.0 0.00 0.00 0.00 36 1015.0
20260904023518 79 283 0.0 0.0 0.00 0.00 0.00 35 1015.0
20260904023033 79 284 0.0 0.0 0.00 0.00 0.00 35 1015.0
20260904022516 79 283 0.0 0.0 0.00 0.00 0.00 34 1014.9
20260904022016 80 283 0.0 0.0 0.00 0.00 0.00 34 1014.9
20260904021514 80 283 0.0 0.0 0.00 0.00 0.00 34 1014.9
20260904021009 81 283 0.0 0.0 0.00 0.00 0.00 33 1014.8
20260904020508 81 283 0.0 0.0 0.00 0.00 0.00 33 1014.7
20260904020018 81 283 0.0 0.0 0.00 0.00 0.00 31 1014.6
20260904015513 82 286 0.0 0.0 0.00 0.00 0.00 30 1014.6
20260904015013 82 284 0.0 0.0 0.00 0.00 0.00 30 1014.6
20260904014524 82 283 0.0 0.0 0.00 0.00 0.00 30 1014.6
20260904014014 83 286 0.0 1.0 0.00 0.00 0.00 30 1014.6
20260904013513 83 284 0.0 2.0 0.00 0.00 0.00 29 1014.5
20260904013029 84 286 0.0 2.0 0.00 0.00 0.00 28 1014.5
20260904012517 84 25 0.0 3.0 0.00 0.00 0.00 28 1014.5
20260904012017 84 112 0.0 3.0 0.00 0.00 0.00 27 1014.5
20260904011538 85 359 0.0 4.0 0.00 0.00 0.00 27 1014.5
20260904011006 85 33 1.0 4.0 0.00 0.00 0.00 27 1014.4
20260904010508 86 202 0.0 9.0 0.00 0.00 0.00 26 1014.4
20260904010012 86 236 0.0 9.0 0.00 0.00 0.00 26 1014.4
20260904005508 86 24 1.0 6.0 0.00 0.00 0.00 26 1014.3
20260904005009 86 281 0.0 6.0 0.00 0.00 0.00 26 1014.3
20260904004534 87 69 3.0 7.0 0.00 0.00 0.00 25 1014.3
20260904004014 87 338 3.0 7.0 0.00 0.00 0.00 25 1014.3
20260904003513 87 70 2.0 8.0 0.00 0.00 0.00 24 1014.2
20260904003026 87 76 4.0 8.0 0.00 0.00 0.00 24 1014.3
20260904002514 87 71 0.0 7.0 0.00 0.00 0.00 24 1014.2
20260904002017 88 73 2.0 7.0 0.00 0.00 0.00 24 1014.2
20260904001506 88 73 3.0 7.0 0.00 0.00 0.00 24 1014.1
20260904001005 88 45 1.0 5.0 0.00 0.00 0.00 23 1014.1
20260904000503 88 79 2.0 5.0 0.00 0.00 0.00 23 1014.1
20260904000010 88 64 0.0 2.0 0.00 0.00 0.00 22 1014.1
20260903235511 88 72 0.0 3.0 0.00 0.00 0.00 22 1014.1
20260903235009 88 222 1.0 6.0 0.00 0.00 0.00 22 1014.1
20260903234515 88 199 0.0 6.0 0.00 0.00 0.00 22 1014.2
20260903234012 88 69 2.0 6.0 0.00 0.00 0.00 22 1014.2
20260903233510 88 244 1.0 6.0 0.00 0.00 0.00 22 1014.2
20260903233020 88 59 0.0 7.0 0.00 0.00 0.00 22 1014.2
20260903232512 88 63 3.0 8.0 0.00 0.00 0.00 22 1014.2
20260903232016 88 60 3.0 8.0 0.00 0.00 0.00 23 1014.3
20260903231526 88 240 1.0 6.0 0.00 0.00 0.00 22 1014.3
20260903231015 89 49 2.0 7.0 0.00 0.00 0.00 22 1014.3
20260903230505 89 198 0.0 7.0 0.00 0.00 0.00 22 1014.3
20260903230007 89 215 0.0 8.0 0.00 0.00 0.00 22 1014.3
20260903225505 89 52 1.0 8.0 0.00 0.00 0.00 21 1014.4
20260903225004 89 63 2.0 8.0 0.00 0.00 0.00 21 1014.4
20260903224518 89 57 3.0 7.0 0.00 0.00 0.00 22 1014.4
20260903224008 90 71 2.0 8.0 0.00 0.00 0.00 21 1014.5
20260903223511 90 48 2.0 10.0 0.00 0.00 0.00 21 1014.5
20260903223023 90 69 3.0 10.0 0.00 0.00 0.00 22 1014.5
20260903222512 90 63 4.0 12.0 0.00 0.00 0.00 23 1014.6
20260903222013 90 55 4.0 12.0 0.00 0.00 0.00 22 1014.6
20260903221526 90 218 2.0 8.0 0.00 0.00 0.00 22 1014.7
20260903221012 90 227 1.0 8.0 0.00 0.00 0.00 23 1014.7
20260903220514 90 79 1.0 9.0 0.00 0.00 0.00 21 1014.8
20260903220030 90 338 3.0 9.0 0.00 0.00 0.00 22 1014.8
20260903215518 91 40 3.0 10.0 0.00 0.00 0.00 23 1014.7
20260903215004 91 62 5.0 10.0 0.00 0.00 0.00 22 1014.6
20260903214513 91 200 1.0 8.0 0.00 0.00 0.00 22 1014.7
20260903214009 91 79 3.0 11.0 0.00 0.00 0.00 20 1014.8
20260903213513 91 54 1.0 11.0 0.00 0.00 0.00 22 1014.8
20260903213014 91 252 2.0 9.0 0.00 0.00 0.00 23 1014.9
20260903212510 91 76 5.0 9.0 0.00 0.00 0.00 22 1014.9
20260903212012 91 14 1.0 13.0 0.00 0.00 0.00 22 1014.9
20260903211534 91 169 2.0 13.0 0.00 0.00 0.00 24 1014.9
20260903211014 91 62 2.0 12.0 0.00 0.00 0.00 22 1015.0
20260903210515 91 64 4.0 12.0 0.00 0.00 0.00 23 1015.0
20260903210027 91 83 3.0 12.0 0.00 0.00 0.00 22 1015.1
20260903205517 91 77 2.0 10.0 0.00 0.00 0.00 22 1015.2
20260903205013 92 194 2.0 9.0 0.00 0.00 0.00 22 1015.2
20260903204534 92 237 2.0 9.0 0.00 0.00 0.00 23 1015.3
20260903204004 92 52 3.0 9.0 0.00 0.00 0.00 22 1015.4
20260903203513 92 187 3.0 10.0 0.00 0.00 0.00 23 1015.4
20260903203011 92 2 1.0 10.0 0.00 0.00 0.00 23 1015.5
20260903202511 93 54 3.0 10.0 0.00 0.00 0.00 22 1015.5
20260903202012 93 142 3.0 10.0 0.00 0.00 0.00 24 1015.5
20260903201536 93 206 3.0 9.0 0.00 0.00 0.00 23 1015.6
20260903201014 93 64 2.0 9.0 0.00 0.00 0.00 22 1015.6
20260903200510 93 67 2.0 7.0 0.00 0.00 0.00 21 1015.5
20260903200023 92 245 2.0 7.0 0.00 0.00 0.00 20 1015.5
20260903195511 92 231 2.0 7.0 0.00 0.00 0.00 21 1015.6
20260903195021 92 226 2.0 7.0 0.00 0.00 0.00 21 1015.6
20260903194529 92 44 1.0 7.0 0.00 0.00 0.00 21 1015.6
20260903194016 92 54 2.0 9.0 0.00 0.00 0.00 20 1015.7
20260903193517 91 185 3.0 10.0 0.00 0.00 0.00 20 1015.7
20260903193032 91 58 4.0 10.0 0.00 0.00 0.00 21 1015.7
20260903192507 91 67 3.0 9.0 0.00 0.00 0.00 20 1015.6
20260903192011 91 214 2.0 11.0 0.00 0.00 0.00 21 1015.7
20260903191516 91 275 5.0 11.0 0.00 0.00 0.00 22 1015.6
20260903191010 91 70 2.0 11.0 0.00 0.00 0.00 24 1015.6
20260903190516 91 53 3.0 11.0 0.00 0.00 0.00 22 1015.6
20260903190019 90 48 3.0 7.0 0.00 0.00 0.00 22 1015.8
20260903185512 90 98 3.0 7.0 0.00 0.00 0.00 22 1015.9
20260903185012 90 61 1.0 9.0 0.00 0.00 0.00 22 1016.0
20260903184532 90 33 3.0 9.0 0.00 0.00 0.00 22 1015.9
20260903184014 90 73 3.0 8.0 0.00 0.00 0.00 22 1016.0
20260903183517 89 279 2.0 10.0 0.00 0.00 0.00 25 1016.3
20260903183032 89 69 3.0 10.0 0.00 0.00 0.00 21 1016.3
20260903182518 89 210 0.0 7.0 0.00 0.00 0.00 26 1016.4
20260903182022 88 71 2.0 7.0 0.00 0.00 0.00 25 1016.6
20260903181533 89 56 3.0 8.0 0.00 0.00 0.00 24 1016.5
20260903181009 88 67 3.0 8.0 0.00 0.00 0.00 24 1016.7
20260903180512 88 69 3.0 8.0 0.00 0.00 0.00 25 1016.8
20260903180025 88 327 3.0 8.0 0.00 0.00 0.00 24 1017.0
20260903175512 88 275 1.0 4.0 0.00 0.00 0.00 25 1017.1
20260903175014 87 67 1.0 4.0 0.00 0.00 0.00 27 1017.1
20260903174533 86 41 2.0 4.0 0.00 0.00 0.00 28 1017.1
20260903174014 86 42 0.0 4.0 0.00 0.00 0.00 27 1017.2
20260903173513 85 36 1.0 4.0 0.00 0.00 0.00 34 1017.3
20260903173030 84 79 1.0 4.0 0.00 0.00 0.00 36 1017.2
20260903172517 83 73 0.0 5.0 0.00 0.00 0.00 37 1017.2
20260903172017 83 62 2.0 5.0 0.00 0.00 0.00 40 1017.2
20260903171535 82 52 2.0 4.0 0.00 0.00 0.00 40 1017.3
20260903171018 82 40 1.0 5.0 0.00 0.00 0.00 42 1017.3
20260903170518 81 41 0.0 5.0 0.00 0.00 0.00 42 1017.3
20260903170014 81 12 1.0 5.0 0.00 0.00 0.00 41 1017.3
20260903165511 80 67 2.0 5.0 0.00 0.00 0.00 41 1017.2
20260903165009 80 89 2.0 5.0 0.00 0.00 0.00 44 1017.2
20260903164523 80 65 2.0 5.0 0.00 0.00 0.00 42 1017.3
20260903164011 80 344 1.0 4.0 0.00 0.00 0.00 43 1017.3
20260903163517 80 296 1.0 3.0 0.00 0.00 0.00 44 1017.3
20260903163024 79 312 0.0 3.0 0.00 0.00 0.00 44 1017.2
20260903162514 79 345 0.0 3.0 0.00 0.00 0.00 43 1017.2
20260903162017 78 315 1.0 3.0 0.00 0.00 0.00 43 1017.2
20260903161528 78 283 0.0 6.0 0.00 0.00 0.00 45 1017.1
20260903161003 78 280 0.0 7.0 0.00 0.00 0.00 46 1017.0
20260903160504 78 285 2.0 7.0 0.00 0.00 0.00 46 1017.0
20260903160015 77 285 2.0 5.0 0.00 0.00 0.00 46 1017.0
20260903155507 77 282 2.0 5.0 0.00 0.00 0.00 47 1017.0
20260903155009 78 284 1.0 5.0 0.00 0.00 0.00 45 1017.0
20260903154520 77 287 1.0 4.0 0.00 0.00 0.00 45 1017.0
20260903154011 77 283 0.0 4.0 0.00 0.00 0.00 46 1017.0
20260903153511 77 283 2.0 5.0 0.00 0.00 0.00 48 1017.1
20260903153024 76 283 1.0 5.0 0.00 0.00 0.00 47 1017.2
20260903152513 76 282 1.0 4.0 0.00 0.00 0.00 48 1017.2
20260903152015 75 283 0.0 3.0 0.00 0.00 0.00 48 1017.3
20260903151534 75 343 2.0 3.0 0.00 0.00 0.00 48 1017.3
20260903151014 74 1 1.0 4.0 0.00 0.00 0.00 49 1017.3
20260903150518 74 286 1.0 4.0 0.00 0.00 0.00 49 1017.4
20260903150011 73 282 1.0 3.0 0.00 0.00 0.00 50 1017.3
20260903145510 73 282 1.0 3.0 0.00 0.00 0.00 50 1017.4
20260903145008 72 282 1.0 4.0 0.00 0.00 0.00 51 1017.3
20260903144518 72 283 2.0 4.0 0.00 0.00 0.00 51 1017.3
20260903144011 71 282 1.0 4.0 0.00 0.00 0.00 53 1017.3
20260903143509 70 283 1.0 4.0 0.00 0.00 0.00 53 1017.3
20260903143021 70 282 0.0 5.0 0.00 0.00 0.00 54 1017.2
20260903142513 70 281 0.0 5.0 0.00 0.00 0.00 56 1017.2
20260903142014 69 282 2.0 5.0 0.00 0.00 0.00 56 1017.1
20260903141535 69 286 1.0 2.0 0.00 0.00 0.00 56 1017.0
20260903141014 68 282 0.0 4.0 0.00 0.00 0.00 56 1017.0
20260903140514 68 281 1.0 4.0 0.00 0.00 0.00 57 1017.2
20260903140028 67 281 1.0 2.0 0.00 0.00 0.00 58 1017.1
20260903135517 66 279 0.0 1.0 0.00 0.00 0.00 59 1017.0
20260903135008 65 279 0.0 0.0 0.00 0.00 0.00 59 1017.0
20260903134512 64 279 0.0 2.0 0.00 0.00 0.00 62 1017.1
20260903134009 63 279 0.0 2.0 0.00 0.00 0.00 64 1017.0
20260903133509 63 279 0.0 2.0 0.00 0.00 0.00 61 1017.0
20260903133018 62 279 0.0 2.0 0.00 0.00 0.00 61 1016.8
20260903132510 61 279 0.0 2.0 0.00 0.00 0.00 64 1017.0
20260903132012 60 280 0.0 3.0 0.00 0.00 0.00 63 1016.8
20260903131523 60 279 1.0 3.0 0.00 0.00 0.00 63 1016.8
20260903131018 60 270 0.0 1.0 0.00 0.00 0.00 64 1016.6
20260903130517 59 285 0.0 0.0 0.00 0.00 0.00 65 1016.4
20260903130032 59 285 0.0 0.0 0.00 0.00 0.00 65 1016.3
20260903125517 59 279 0.0 0.0 0.00 0.00 0.00 64 1016.5
20260903125017 59 275 0.0 2.0 0.00 0.00 0.00 63 1016.5
20260903124535 59 275 0.0 3.0 0.00 0.00 0.00 63 1016.7
20260903124020 59 270 0.0 3.0 0.00 0.00 0.00 63 1016.6
20260903123506 59 275 0.0 3.0 0.00 0.00 0.00 63 1016.5
20260903123012 59 275 0.0 7.0 0.00 0.00 0.00 63 1016.5
20260903122511 59 279 2.0 7.0 0.00 0.00 0.00 63 1016.4
20260903122010 58 279 1.0 4.0 0.00 0.00 0.00 63 1016.4
20260903121518 58 275 0.0 4.0 0.00 0.00 0.00 64 1016.3
20260903121012 58 275 0.0 3.0 0.00 0.00 0.00 64 1016.3
20260903120514 58 279 0.0 2.0 0.00 0.00 0.00 63 1016.3
20260903120028 59 287 0.0 0.0 0.00 0.00 0.00 63 1016.3
20260903115514 59 287 0.0 1.0 0.00 0.00 0.00 63 1016.3
20260903115016 59 287 0.0 2.0 0.00 0.00 0.00 63 1016.1
20260903114531 59 287 0.0 7.0 0.00 0.00 0.00 63 1016.1
20260903114021 59 287 2.0 7.0 0.00 0.00 0.00 63 1016.1
20260903113518 59 279 1.0 4.0 0.00 0.00 0.00 62 1016.1
20260903113031 59 285 0.0 3.0 0.00 0.00 0.00 63 1016.1
20260903112518 59 275 0.0 3.0 0.00 0.00 0.00 62 1016.0
20260903112007 59 287 0.0 3.0 0.00 0.00 0.00 62 1016.0
20260903111528 59 287 0.0 3.0 0.00 0.00 0.00 62 1016.0
20260903111012 59 275 0.0 4.0 0.00 0.00 0.00 62 1016.0
20260903110513 59 279 2.0 6.0 0.00 0.00 0.00 62 1016.1
20260903110023 59 279 2.0 7.0 0.00 0.00 0.00 62 1016.0
20260903105513 59 287 3.0 7.0 0.00 0.00 0.00 63 1016.1
20260903105015 59 279 0.0 4.0 0.00 0.00 0.00 63 1016.1
20260903104527 59 279 1.0 4.0 0.00 0.00 0.00 63 1016.1
20260903104016 59 285 0.0 4.0 0.00 0.00 0.00 63 1016.1
20260903103513 59 279 0.0 3.0 0.00 0.00 0.00 63 1016.2
20260903103039 59 279 0.0 3.0 0.00 0.00 0.00 64 1016.3
20260903102516 59 275 0.0 3.0 0.00 0.00 0.00 63 1016.2
20260903102018 59 275 0.0 2.0 0.00 0.00 0.00 63 1016.2
20260903101530 59 275 0.0 4.0 0.00 0.00 0.00 63 1016.2
20260903101009 59 275 1.0 4.0 0.00 0.00 0.00 63 1016.3
20260903100510 59 279 1.0 4.0 0.00 0.00 0.00 65 1016.4
20260903100017 60 279 0.0 2.0 0.00 0.00 0.00 65 1016.5
20260903095512 60 279 0.0 1.0 0.00 0.00 0.00 66 1016.5
20260903095011 60 279 0.0 1.0 0.00 0.00 0.00 65 1016.5
20260903094527 60 279 0.0 3.0 0.00 0.00 0.00 65 1016.5
20260903094016 60 279 1.0 3.0 0.00 0.00 0.00 65 1016.5
20260903093515 60 275 0.0 0.0 0.00 0.00 0.00 66 1016.5
20260903093041 60 275 0.0 0.0 0.00 0.00 0.00 66 1016.6
20260903092518 61 275 0.0 1.0 0.00 0.00 0.00 65 1016.6
20260903092020 61 275 0.0 1.0 0.00 0.00 0.00 65 1016.4
20260903091539 61 275 0.0 1.0 0.00 0.00 0.00 63 1016.4
20260903091016 61 275 0.0 1.0 0.00 0.00 0.00 63 1016.4
20260903090519 61 275 0.0 1.0 0.00 0.00 0.00 63 1016.4
20260903090034 62 275 0.0 1.0 0.00 0.00 0.00 62 1016.4
20260903085511 62 275 0.0 3.0 0.00 0.00 0.00 62 1016.4
20260903085011 62 275 1.0 3.0 0.00 0.00 0.00 62 1016.5
20260903084538 62 275 0.0 3.0 0.00 0.00 0.00 62 1016.4
20260903084012 62 275 1.0 3.0 0.00 0.00 0.00 62 1016.4
20260903083514 63 287 0.0 2.0 0.00 0.00 0.00 61 1016.3
20260903083025 63 287 0.0 5.0 0.00 0.00 0.00 60 1016.3
20260903082515 63 287 2.0 5.0 0.00 0.00 0.00 60 1016.5
20260903082017 63 279 0.0 2.0 0.00 0.00 0.00 60 1016.3
20260903081533 63 279 0.0 2.0 0.00 0.00 0.00 60 1016.4
20260903081018 63 275 0.0 3.0 0.00 0.00 0.00 59 1016.5
20260903080522 63 275 0.0 3.0 0.00 0.00 0.00 59 1016.6
20260903080036 64 287 1.0 3.0 0.00 0.00 0.00 59 1016.6
20260903075518 64 275 0.0 3.0 0.00 0.00 0.00 59 1016.7
20260903075017 64 275 1.0 3.0 0.00 0.00 0.00 59 1016.5
20260903074535 64 287 1.0 2.0 0.00 0.00 0.00 60 1016.5
20260903074011 64 287 0.0 4.0 0.00 0.00 0.00 60 1016.4
20260903073512 64 287 0.0 4.0 0.00 0.00 0.00 60 1016.4
20260903073027 65 279 1.0 3.0 0.00 0.00 0.00 61 1016.4
20260903072513 65 287 0.0 2.0 0.00 0.00 0.00 59 1016.5
20260903072014 65 287 0.0 2.0 0.00 0.00 0.00 59 1016.5
20260903071533 65 287 0.0 5.0 0.00 0.00 0.00 58 1016.4
20260903071015 65 275 2.0 5.0 0.00 0.00 0.00 58 1016.4
20260903070519 65 279 2.0 4.0 0.00 0.00 0.00 58 1016.4
20260903070030 65 279 0.0 3.0 0.00 0.00 0.00 58 1016.5
20260903065518 66 275 1.0 3.0 0.00 0.00 0.00 58 1016.5
20260903065017 66 279 0.0 3.0 0.00 0.00 0.00 58 1016.6
20260903064537 66 285 0.0 4.0 0.00 0.00 0.00 58 1016.7
20260903064020 66 285 0.0 4.0 0.00 0.00 0.00 58 1016.7
20260903063519 66 279 1.0 5.0 0.00 0.00 0.00 58 1016.6
20260903063022 66 275 2.0 5.0 0.00 0.00 0.00 58 1016.5